Terminal Aerodrome Forecast
Issued by NWS

Home | Current Version | Previous Version | Text Only | Print | Product List | Glossary On
Versions: 1 2 3 4 5 6 7 8 9 10 11 12 13 14 15 16 17 18 19 20 21 22 23 24 25 26
000
FTUS42 KMHX 310500
TAFPGV
TAF
KPGV 310531Z 3106/0106 01002KT P6SM FEW040 SCT120
      TEMPO 3108/3112 3SM BR SCT004
     FM311500 03008KT P6SM BKN045
     FM312300 03003KT P6SM BKN045
      AMD LTD TO CLD VIS AND WIND=

USA.gov is the U.S. government's official web portal to all federal, state and local government web resources and services.